This is the latest recevied weather packets stored in our database for station/object KD4EED. If no packets are shown the sender has not sent any weather packets the latest 10 day(s).
| Time | Temp. | Humidity | Pressure | Rain* | Wind** | Luminosity | Snow |
|---|---|---|---|---|---|---|---|
| 1788579245 | 21.11° C | 80% | 1009.9 hPa | - | - | 0 W/m² | - |
| 1788578944 | 21.11° C | 80% | 1009.8 hPa | - | - | 0 W/m² | - |
| 1788578640 | 21.67° C | 80% | 1009.9 hPa | - | - | 0 W/m² | - |
| 1788578335 | 21.67° C | 79% | 1009.6 hPa | - | - | 0 W/m² | - |
| 1788578030 | 21.67° C | 79% | 1009.6 hPa | - | - | 0 W/m² | - |
| 1788577725 | 21.67° C | 78% | 1009.6 hPa | - | - | 0 W/m² | - |
| 1788577421 | 21.67° C | 78% | 1009.6 hPa | - | - | 0 W/m² | - |
| 1788577120 | 21.67° C | 78% | 1009.4 hPa | - | - | 0 W/m² | - |
| 1788576816 | 21.67° C | 77% | 1009.4 hPa | - | - | 0 W/m² | - |
| 1788576512 | 21.67° C | 77% | 1009.5 hPa | - | - | 0 W/m² | - |
| 1788576207 | 21.67° C | 76% | 1009.5 hPa | - | - | 0 W/m² | - |
| 1788575902 | 22.22° C | 75% | 1009.4 hPa | - | - | 0 W/m² | - |
| 1788575598 | 22.22° C | 75% | 1009.4 hPa | - | - | 0 W/m² | - |
| 1788575296 | 22.22° C | 74% | 1009.4 hPa | - | - | 0 W/m² | - |
| 1788574992 | 22.22° C | 73% | 1009.3 hPa | - | - | 1 W/m² | - |
| 1788574687 | 22.78° C | 73% | 1009.6 hPa | - | - | 1 W/m² | - |
| 1788574382 | 22.78° C | 72% | 1009.7 hPa | - | - | 3 W/m² | - |
| 1788574081 | 22.78° C | 71% | 1009.4 hPa | - | - | 4 W/m² | - |
| 1788573777 | 23.33° C | 70% | 1009.6 hPa | - | - | 6 W/m² | - |
| 1788573475 | 23.89° C | 69% | 1009.8 hPa | - | - | 8 W/m² | - |
| 1788573170 | 23.89° C | 68% | 1009.7 hPa | - | - | 10 W/m² | - |
| 1788572869 | 24.44° C | 67% | 1009.9 hPa | - | - | 16 W/m² | - |
| 1788572565 | 24.44° C | 67% | 1009.8 hPa | - | - | 23 W/m² | - |
| 1788572260 | 24.44° C | 66% | 1009.7 hPa | - | - | 25 W/m² | - |
| 1788571956 | 25° C | 65% | 1009.7 hPa | - | - | 35 W/m² | - |
* Rain since midnight (hover to see other rain measurements)
** Current wind speed in m/s (hover to see current wind gust speed)